Погода в Кабве

Замбия     14°26′21″S   28°25′35″E
темп.,
°C
ветер,
м/с
пор.,
м/с
влажн.,
%
обл.,
%
осадки,
мм/ч
давл.,
гПа
погр.,
м
3 августа, вт
вт323:00+15вюв28530 0.0 1021132
02:00+13в23550 0.0 102051
05:00+12вюв23620 0.0 102256
08:00+16вюв410480 0.0 1024463
11:00+23вюв57230 0.0 10221799
14:00+25вюв56180 0.0 10182470
17:00+24юв56210 0.0 10181954
20:00+17вюв412325 0.0 1021283
4 августа, ср
ср423:00+15вюв413330 0.0 1022385
02:00+11в25395 0.0 102292
05:00+10вюв312400 0.0 1023303
08:00+13вюв513400 0.0 1025530
11:00+21вюв56240 0.0 10231032
14:00+24юв43180 0.0 10191805
17:00+23юв43180 0.0 10191744
20:00+16вюв37290 0.0 102295
5 августа, чт
чт523:00+13вюв26390 0.0 1023105
02:00+12вюв22470 0.0 102218
05:00+10вюв22520 0.0 102228
08:00+15вюв37370 0.0 1024296
11:00+23вюв33190 0.0 10221122
14:00+27юв22120 0.0 10172378
17:00+25ююв44140 0.0 10161035
20:00+17юв35250 0.0 102075
6 августа, пт
пт623:00+14юв24350 0.0 102261
02:00+13в24430 0.0 102150
05:00+12в23470 0.0 102149
08:00+16вюв49350 0.0 1022331
11:00+25вюв44220 0.0 10191286
14:00+28ююв42140 0.0 10152320
17:00+26юв43160 0.0 10151326
20:00+18вюв310280 0.0 1019156
7 августа, сб
сб723:00+15вюв24380 0.0 101970
02:00+13вюв25440 0.0 101974
05:00+13вюв22451 0.0 101930
08:00+17вюв38340 0.0 1020290
11:00+26вюв56210 0.0 10191452
14:00+28юв56160 0.0 10152137
17:00+26вюв46190 0.0 10151857
20:00+18вюв39300 0.0 1018140